Find Starlink 35156

NORAD ID: 65607 Int'l Des: 2025-207 Owner: SPXS Country: US Constellation: starlink operational
LEOCIRCULARRETROGRADESSO

現在のビュー

3D地球を読み込み中...

About Starlink 35156

Starlink 35156 (NORAD 65607) is a starlink constellation satellite (v2 mini) launched Sep 13, 2025 by SPXS of US. It operates in LEO, CIRCULAR, RETROGRADE, SSO orbit with a mass of 575.00 kg.

Starlink 35156について

説明を読み込み中...

次回通過

Passes for default location (London). Set your location on the main map for personalized predictions.

高度履歴

Loading altitude history...

軌道要素

1 65607U 25207R 26195.74398087 .00004986 00000-0 34916-3 0 9992
2 65607 97.2797 261.9099 0001387 60.1286 300.0079 15.05658713 47387
Epoch: Jul 14, 2026 • Age: 11 hours

現在のステータス

高度 577.1 km
遠地点 / 近地点 N/A
速度 7.57 km/s
衛星直下点 -72.22°S, 57.71°E
打ち上げ日 Sep 13, 2025
運用期間 0.8 years
タイプ internet

技術仕様

分類 Payload
質量 575.00 kg
乾燥質量 530.00 kg
総質量 575.00 kg
長さ 0.30 m
直径 4.10 m
スパン 29.00 m
形状 Box + pan
製造者 SPXS
バスタイプ Starlink V2MO
フェーズステータス In Orbit
所有者/国 SPXS/US

Most Searched